[[{"header":{"parameterUnit":"m.s-1","parameterCategory":1,"la1":30.2991,"la2":30.254,"lo1":-89.0895,"lo2":-89.0444,"dy":0.0017,"dx":0.0017,"nx":28,"ny":28,"refTime":"2023-04-01T21:00:00:Z","depth":0,"parameterNumber":2,"parameterNumberName":"U-component_of_WINDS"},"data":[0,0,0,0,0,0,0,0,0,0,0,0,0,0,0,0,0,0,0,0,0,0,0,0,0,0,0,0,0,0,0,0,0,0,0,0,0,0,0,0,0,0,0,0,0,0,0,0,0,0,0,0,0,0,0,0,0,0,-1.3343,-1.3342,0,-1.3307,-1.3306,-1.3306,-1.3281,-1.3281,-1.3281,-1.3281,-1.3241,-1.324,-1.3239,0,0,0,0,0,0,0,0,0,0,0,0,0,-1.3387,-1.3386,-1.3343,-1.3342,-1.3342,-1.3307,-1.3306,-1.3306,-1.3281,-1.3281,-1.3281,-1.3281,-1.3241,-1.324,-1.3239,0,0,0,0,0,0,0,0,0,0,0,0,0,-1.3361,-1.3386,-1.3343,-1.3325,-1.3324,-1.3307,-1.3306,-1.3306,-1.3281,-1.3281,-1.3281,-1.328,-1.3241,-1.324,-1.3239,-1.3236,0,0,-1.3235,-1.3234,0,0,0,0,0,0,0,0,-1.3363,-1.3359,-1.3328,-1.3327,-1.3324,-1.3298,-1.3307,-1.3282,-1.3281,-1.3297,-1.3281,-1.328,-1.326,-1.3257,-1.3251,-1.3234,-1.3232,-1.3234,-1.3234,-1.3233,-1.3233,0,0,0,0,0,0,0,-1.3364,-1.3361,-1.3328,-1.3328,-1.3326,-1.3318,-1.3314,-1.3302,-1.328,-1.3296,-1.3294,-1.329,-1.3259,-1.3252,-1.325,-1.3231,-1.3234,-1.3233,-1.3232,-1.3232,-1.3208,-1.3209,0,0,0,0,0,0,-1.3369,-1.3363,-1.333,-1.3327,-1.3343,-1.3318,-1.3313,-1.3307,-1.328,-1.3276,-1.329,-1.3289,-1.3254,-1.3251,-1.3248,-1.3242,-1.3233,-1.3232,-1.3231,-1.3208,-1.3208,-1.3209,0,0,0,0,0,0,-1.337,-1.3367,-1.3331,-1.3344,-1.3339,-1.3317,-1.331,-1.3306,-1.33,-1.3276,-1.3272,-1.3288,-1.3254,-1.325,-1.3239,-1.324,-1.3231,-1.323,-1.3208,-1.3208,-1.3209,-1.323,0,0,0,0,0,0,-1.3372,-1.3367,-1.3367,-1.3345,-1.3339,-1.3323,-1.331,-1.3306,-1.3298,-1.3296,-1.3273,-1.3269,-1.3254,-1.3241,-1.3237,-1.3238,-1.3229,-1.3208,-1.3208,-1.3208,-1.3229,-1.3231,-1.3232,0,0,0,0,0,-1.3374,-1.3374,-1.3367,-1.3363,-1.3338,-1.3324,-1.332,-1.3304,-1.3298,-1.3297,-1.3281,-1.3269,-1.3241,-1.324,-1.3236,-1.3236,-1.3208,-1.3208,-1.3208,-1.3228,-1.323,-1.3232,0,0,0,0,0,0,-1.3396,-1.3371,-1.3363,-1.3356,-1.3342,-1.332,-1.3317,-1.3307,-1.3294,-1.3292,-1.3271,-1.3266,-1.3257,-1.3245,-1.3245,-1.3231,-1.3222,-1.3222,-1.3239,-1.3241,-1.3243,-1.3245,-1.3228,0,0,0,0,0,-1.34,-1.3392,-1.337,-1.3366,-1.3359,-1.334,-1.3333,-1.3321,-1.3306,-1.33,-1.3284,-1.3268,-1.3255,-1.3248,-1.3235,-1.3227,-1.3221,-1.3225,-1.3227,-1.3228,-1.3228,-1.3222,-1.3223,-1.321,-1.321,-1.321,0,0,-1.3408,-1.3394,-1.3389,-1.337,-1.3358,-1.3349,-1.3335,-1.3326,-1.3318,-1.3298,-1.3286,-1.3274,-1.3255,-1.3246,-1.3241,-1.3236,-1.323,-1.3229,-1.323,-1.3229,-1.3222,-1.3224,-1.3225,-1.321,-1.321,-1.321,0,0,-1.3419,-1.3407,-1.3402,-1.3391,-1.3373,-1.336,-1.3359,-1.3337,-1.3329,-1.3317,-1.3301,-1.3291,-1.327,-1.3257,-1.3248,-1.3253,-1.3241,-1.3249,-1.3258,-1.3252,-1.3253,-1.3254,-1.3255,-1.3255,-1.3249,-1.3249,-1.3249,0,-1.3431,-1.3418,-1.3401,-1.3393,-1.3384,-1.3366,-1.336,-1.3349,-1.3328,-1.3322,-1.3317,-1.3289,-1.3275,-1.3262,-1.3263,-1.3256,-1.3253,-1.3251,-1.3255,-1.3255,-1.3256,-1.3256,-1.3257,-1.325,-1.325,-1.325,-1.325,0,-1.3433,-1.3424,-1.3422,-1.3403,-1.3394,-1.3387,-1.3368,-1.336,-1.3349,-1.3336,-1.3324,-1.3307,-1.3289,-1.3285,-1.3274,-1.327,-1.3267,-1.3259,-1.325,-1.3258,-1.3258,-1.3258,-1.3251,-1.3251,-1.3251,-1.3251,0,0,-1.3457,-1.3428,-1.3427,-1.3418,-1.3397,-1.3389,-1.338,-1.3365,-1.3358,-1.3344,-1.3335,-1.3317,-1.3309,-1.3299,-1.3286,-1.3281,-1.3284,-1.3273,-1.3272,-1.3275,-1.3277,-1.3283,-1.3284,-1.3277,-1.3276,-1.3276,-1.3278,0,-1.3463,-1.3448,-1.3433,-1.3423,-1.3413,-1.3396,-1.3388,-1.3374,-1.3361,-1.335,-1.3335,-1.3323,-1.3314,-1.3307,-1.3301,-1.3285,-1.3284,-1.3285,-1.3267,-1.3267,-1.3272,-1.3284,-1.3291,-1.3293,-1.3278,-1.3278,-1.3278,0,-1.3469,-1.3456,-1.3446,-1.3425,-1.342,-1.3414,-1.3398,-1.3388,-1.337,-1.3361,-1.3349,-1.3336,-1.3324,-1.3317,-1.33,-1.3301,-1.3293,-1.3284,-1.3283,-1.328,-1.3273,-1.3281,-1.3294,-1.3294,-1.3278,-1.3278,-1.3278,0,-1.3486,-1.3466,-1.3457,-1.345,-1.3425,-1.3421,-1.3411,-1.3393,-1.3384,-1.3369,-1.3363,-1.3347,-1.3338,-1.3325,-1.3307,-1.3303,-1.3292,-1.3283,-1.3282,-1.3283,-1.3281,-1.3281,-1.3292,-1.3276,-1.3276,-1.3276,-1.3276,0,-1.3495,-1.3489,-1.3464,-1.3459,-1.3451,-1.3433,-1.3425,-1.3413,-1.3397,-1.3388,-1.3371,-1.3362,-1.3339,-1.3327,-1.3313,-1.33,-1.3297,-1.3288,-1.3284,-1.3289,-1.329,-1.3283,-1.3282,-1.3276,-1.3276,-1.3276,-1.3276,0,-1.3512,-1.3496,-1.3485,-1.3463,-1.3457,-1.3452,-1.3433,-1.3426,-1.3412,-1.34,-1.3396,-1.3375,-1.3359,-1.334,-1.3319,-1.3309,-1.3298,-1.3292,-1.3304,-1.3302,-1.3302,-1.3302,-1.3308,-1.3308,-1.3294,-1.3294,-1.3294,0,-1.3519,-1.3514,-1.3491,-1.3485,-1.3475,-1.3464,-1.3455,-1.3436,-1.3427,-1.3407,-1.3402,-1.3386,-1.3372,-1.3348,-1.3329,-1.3313,-1.3306,-1.3309,-1.3303,-1.3308,-1.3305,-1.3305,-1.3304,-1.3311,-1.3311,-1.3311,-1.3311,0,-1.3531,-1.3524,-1.3512,-1.3497,-1.3487,-1.3475,-1.3461,-1.3456,-1.3434,-1.3424,-1.3409,-1.3399,-1.3377,-1.3361,-1.3341,-1.3329,-1.3316,-1.3313,-1.3312,-1.3317,-1.3324,-1.332,-1.3308,-1.3313,-1.3313,-1.3313,-1.3313,-1.3313,-1.3543,-1.3538,-1.3521,-1.3508,-1.3496,-1.3484,-1.3476,-1.3462,-1.3449,-1.3431,-1.342,-1.3405,-1.3387,-1.336,-1.3347,-1.3334,-1.333,-1.3328,-1.3328,-1.3327,-1.3329,-1.3327,-1.3331,-1.3331,-1.3331,-1.3331,-1.333,0,-1.3554,-1.3543,-1.3531,-1.3513,-1.3503,-1.3493,-1.3477,-1.3469,-1.3456,-1.3441,-1.3427,-1.3409,-1.3393,-1.3373,-1.3356,-1.3349,-1.3342,-1.3345,-1.3345,-1.3342,-1.3334,-1.3337,-1.335,-1.335,-1.335,-1.335,-1.335,-1.335,-1.3559,-1.3549,-1.3539,-1.3522,-1.351,-1.3496,-1.3488,-1.3476,-1.3463,-1.3445,-1.3432,-1.3419,-1.3401,-1.3382,-1.3366,-1.336,-1.3354,-1.3358,-1.3351,-1.3344,-1.3342,-1.3341,-1.3343,-1.3357,-1.3357,-1.3359,-1.3359,-1.3359]},{"header":{"parameterUnit":"m.s-1","parameterCategory":1,"la1":30.2991,"la2":30.254,"lo1":-89.0895,"lo2":-89.0444,"dy":0.0017,"dx":0.0017,"nx":28,"ny":28,"refTime":"2023-04-01T21:00:00:Z","depth":0,"parameterNumber":3,"parameterNumberName":"V-component_of_WINDS"},"data":[0,0,0,0,0,0,0,0,0,0,0,0,0,0,0,0,0,0,0,0,0,0,0,0,0,0,0,0,0,0,0,0,0,0,0,0,0,0,0,0,0,0,0,0,0,0,0,0,0,0,0,0,0,0,0,0,0,0,3.6856,3.6857,0,3.6959,3.696,3.6961,3.6959,3.6958,3.6957,3.6955,3.7058,3.7062,3.7066,0,0,0,0,0,0,0,0,0,0,0,0,0,3.6657,3.666,3.6856,3.6857,3.6858,3.6959,3.696,3.6961,3.696,3.6958,3.6956,3.6955,3.7056,3.7061,3.7066,0,0,0,0,0,0,0,0,0,0,0,0,0,3.675,3.6662,3.6856,3.687,3.6872,3.6958,3.696,3.6962,3.696,3.6958,3.6956,3.6954,3.7055,3.7061,3.7067,3.7145,0,0,3.7085,3.7087,0,0,0,0,0,0,0,0,3.6744,3.6757,3.6866,3.6869,3.6872,3.6944,3.6927,3.7023,3.6961,3.6926,3.6955,3.6953,3.7021,3.703,3.7054,3.715,3.7154,3.7085,3.7089,3.7092,3.7093,0,0,0,0,0,0,0,3.6738,3.6753,3.6896,3.6868,3.6871,3.6871,3.6881,3.6946,3.6984,3.6929,3.6929,3.6942,3.7022,3.7048,3.7056,3.7155,3.7085,3.7091,3.7094,3.7097,3.7324,3.7326,0,0,0,0,0,0,3.6729,3.6747,3.6893,3.69,3.6802,3.6876,3.6888,3.6923,3.6983,3.6991,3.6943,3.6941,3.7039,3.7049,3.706,3.7158,3.7092,3.7097,3.7101,3.7322,3.7325,3.7327,0,0,0,0,0,0,3.6725,3.6742,3.6889,3.6824,3.6842,3.6881,3.6921,3.6926,3.6952,3.6994,3.7001,3.6963,3.7037,3.7051,3.7125,3.7161,3.71,3.7105,3.7319,3.7323,3.7326,3.7354,0,0,0,0,0,0,3.6719,3.674,3.6771,3.6824,3.6846,3.6953,3.6923,3.693,3.6962,3.6961,3.7014,3.7021,3.7037,3.7116,3.7131,3.7169,3.711,3.7316,3.7321,3.7325,3.735,3.7358,3.7365,0,0,0,0,0,3.6712,3.6773,3.6772,3.679,3.6884,3.6955,3.6967,3.6985,3.6965,3.6996,3.7024,3.7019,3.7155,3.7123,3.714,3.718,3.7314,3.7319,3.7325,3.7346,3.7356,3.7365,0,0,0,0,0,0,3.6721,3.678,3.678,3.686,3.6903,3.6954,3.6994,3.6995,3.7043,3.7039,3.7059,3.7071,3.7145,3.7169,3.7133,3.7261,3.7232,3.7241,3.7242,3.7252,3.726,3.7253,3.7115,0,0,0,0,0,3.6732,3.6785,3.6833,3.69,3.6921,3.6954,3.6985,3.6996,3.704,3.7058,3.7091,3.7133,3.7186,3.722,3.727,3.7353,3.7366,3.7389,3.7396,3.7402,3.7411,3.7459,3.7471,3.7345,3.7345,3.7345,0,0,3.6756,3.6795,3.6827,3.6903,3.6937,3.6991,3.6969,3.7026,3.7068,3.7066,3.7139,3.7165,3.7213,3.7293,3.7329,3.7315,3.7448,3.7409,3.7414,3.7419,3.7466,3.7478,3.7488,3.7349,3.7348,3.7348,0,0,3.6828,3.6862,3.6922,3.6958,3.7011,3.7033,3.7047,3.71,3.7117,3.7191,3.7192,3.724,3.7329,3.7366,3.7395,3.7484,3.7482,3.75,3.754,3.7587,3.7596,3.7605,3.764,3.7651,3.7507,3.7507,3.7507,0,3.6851,3.6934,3.6953,3.7013,3.7047,3.705,3.7112,3.7145,3.7211,3.7235,3.7218,3.7333,3.7366,3.7455,3.7477,3.75,3.7519,3.7494,3.7594,3.7603,3.7611,3.7644,3.7657,3.7509,3.7509,3.7509,3.7509,0,3.696,3.7018,3.706,3.7127,3.7165,3.7225,3.7254,3.7291,3.7299,3.7323,3.7399,3.7439,3.7499,3.752,3.7527,3.7611,3.7602,3.7589,3.7561,3.7625,3.7656,3.7669,3.7512,3.7511,3.7511,3.751,0,0,3.704,3.7118,3.7134,3.7166,3.7225,3.727,3.7331,3.7392,3.7424,3.7469,3.7522,3.7599,3.7589,3.7623,3.7635,3.7676,3.7747,3.7659,3.766,3.7676,3.7845,3.7855,3.787,3.7745,3.7748,3.775,3.7842,0,3.712,3.723,3.725,3.7346,3.7401,3.7406,3.7459,3.7502,3.7526,3.7576,3.7602,3.7657,3.7639,3.766,3.77,3.773,3.7781,3.7723,3.7796,3.7798,3.7786,3.7886,3.7896,3.7981,3.7854,3.7856,3.7857,0,3.7228,3.728,3.7381,3.7437,3.7461,3.7509,3.7567,3.7614,3.7663,3.7678,3.7718,3.7725,3.779,3.7757,3.7847,3.7807,3.7838,3.7857,3.786,3.7869,3.7833,3.7899,3.8008,3.8022,3.7876,3.7875,3.7873,0,3.7279,3.7374,3.7448,3.7474,3.754,3.7574,3.7603,3.765,3.7686,3.7737,3.7761,3.7818,3.7849,3.7893,3.7916,3.789,3.8006,3.7974,3.8021,3.802,3.8046,3.8044,3.8163,3.8062,3.8062,3.8062,3.8061,0,3.7368,3.7431,3.7472,3.7518,3.7589,3.7612,3.7682,3.771,3.7752,3.7804,3.781,3.7858,3.7885,3.7937,3.7955,3.8028,3.8042,3.8056,3.8061,3.8057,3.8056,3.8079,3.8074,3.8065,3.8064,3.8064,3.8063,0,3.7437,3.7468,3.7549,3.7606,3.7622,3.7672,3.7721,3.7766,3.779,3.7856,3.7872,3.7911,3.7973,3.8,3.8075,3.8088,3.8173,3.8171,3.8157,3.8159,3.8205,3.8201,3.8345,3.8366,3.8248,3.8249,3.825,0,3.7493,3.7542,3.7605,3.7641,3.7672,3.7729,3.7767,3.7791,3.783,3.7892,3.793,3.7992,3.8044,3.8143,3.8178,3.8236,3.8238,3.8285,3.8247,3.8243,3.8242,3.824,3.8246,3.8292,3.8293,3.8294,3.8295,0,3.7589,3.7603,3.7658,3.7719,3.7764,3.7813,3.7861,3.7889,3.7922,3.7965,3.803,3.8071,3.815,3.8213,3.8274,3.8303,3.8306,3.8306,3.8321,3.8319,3.8309,3.8318,3.8178,3.8303,3.8302,3.8302,3.8301,3.8301,3.7656,3.7701,3.7753,3.7815,3.7854,3.7899,3.7945,3.7977,3.8032,3.81,3.811,3.818,3.823,3.8313,3.8345,3.84,3.8389,3.8408,3.8414,3.8419,3.8424,3.8299,3.8411,3.8411,3.841,3.841,3.841,0,3.7755,3.779,3.7846,3.7914,3.7963,3.7962,3.8015,3.8056,3.8118,3.8165,3.8217,3.8293,3.8354,3.8395,3.8457,3.8494,3.8496,3.8509,3.8508,3.8516,3.8429,3.8412,3.8507,3.8507,3.8507,3.8507,3.8506,3.8506,3.7812,3.789,3.791,3.8007,3.8041,3.8111,3.8142,3.8184,3.8222,3.8307,3.836,3.8386,3.8431,3.8497,3.8554,3.8564,3.8588,3.8602,3.8612,3.8531,3.8521,3.8512,3.8496,3.8607,3.8607,3.8695,3.8696,3.8696]}]]